Location: Sangrey
(48.2845°N, 109.8206°W)
Time: 20:10:16
(UTC+00:00)

ISS - Visible Passes

Search period start: 30 March 2023 00:00
Search period end: 09 April 2023 00:00
Orbit: 413 x 421 km, 51.6° (Epoch: 30 March)

Date Brightness Start Highest point End Pass type
(mag) Time Alt. Az. Time Alt. Az. Time Alt. Az.
30 Mar -3.6 02:15:59 10° WNW 02:19:20 69° NNE 02:22:39 10° ESE visible
30 Mar -2.3 03:52:57 10° W 03:55:42 29° SW 03:55:42 29° SW visible
31 Mar -3.0 03:04:35 10° WNW 03:07:47 44° SSW 03:09:32 22° SSE visible
01 Apr -3.5 02:16:14 10° WNW 02:19:33 66° SSW 02:22:52 10° SE visible
01 Apr -1.2 03:54:06 10° WSW 03:55:47 13° SW 03:56:16 13° SW visible
02 Apr -1.6 03:05:04 10° W 03:07:37 20° SW 03:10:05 10° S visible
